Weather in Kadaya

Russia / Zabaykalsky Krai     50°56′01″N   119°17′29″E
temp.,
°C
wind,
m/s
gust,
m/s
humid.,
%
clouds,
%
prec.,
mm/h
press.,
hPa
HPBL,
m
6 may, thu
thu600:00+2nnw228658 0.0 100115
03:00+1nnw228838 0.0 100234
06:000nw22865 0.0 100417
09:00+7nnw35575 0.0 1004976
12:00+11nne4637100 0.0 10022245
15:00+12n4535100 0.0 10012256
18:00+13n243372 0.0 10012176
21:00+8n114625 0.0 100210
7 may, fri
fri700:00+6nne226283 0.3 100314
03:00+4nne1169100 0.3 100210
06:00+3ene1179100 0.3 100111
09:00+7ne2359100 0.4 999485
12:00+11ese3445100 0.7 9971722
15:00+6ene2383100 3.9 997628
18:00+10n4854100 1.9 9961579
21:00+8ne7145179 2.2 999477
8 may, sat
sat800:00+5nne5116613 0.0 1003364
03:00+2nnw35765 0.0 100494
06:00+1nw36805 0.0 1005133
09:00+6n795661 0.0 10051391
12:00+8n7939100 0.0 10042392
15:00+10n6834100 0.0 10032596
18:00+10n683346 0.0 10032222
21:00+6n33495 0.0 100542
9 may, sun
sun900:00+3nnw32595 0.0 100629
03:00+2nw226726 0.0 100723
06:00+1nw22725 0.0 100830
09:00+7n35515 0.0 10071105
12:00+10nnw3533100 0.0 10062416
15:00+11nw4530100 0.0 10042286
18:00+11n553833 0.0 10051893
21:00+7nnw335390 0.0 100732
10 may, mon
mon1000:00+4nnw22695 0.0 100929
03:00+3nw2276100 0.0 101022
06:00+3nnw2376100 0.0 101090
09:00+7nnw3462100 0.0 1010950
12:00+8nnw445670 1.0 10101289
15:00+9n454976 1.9 10091380
18:00+9nne655172 0.3 10101536
21:00+5n49725 0.3 1012333